Location: Forcarei
(42.5879°N, 8.3520°W)
Time: 06:58:56
(UTC+01:00)

Hubble Space Telescope - Visible Passes

Search period start: 11 December 2017 00:00
Search period end: 21 December 2017 00:00
Orbit: 538 x 541 km, 28.5° (Epoch: 10 December)

Date Brightness Start Highest point End Pass type
(mag) Time Alt. Az. Time Alt. Az. Time Alt. Az.
11 Dec 3.5 20:31:17 10° SSW 20:32:11 11° S 20:32:11 11° S visible
12 Dec 3.4 20:21:01 10° SSW 20:22:15 11° S 20:22:36 11° S visible
13 Dec 3.6 18:30:52 10° S 18:31:32 10° S 18:32:12 10° SSE visible
13 Dec 3.4 20:10:56 10° SSW 20:11:52 11° S 20:12:48 10° S visible
